Location: Helion Bumpstead
(52.0500°N, 0.4000°E)
Time: 23:08:10
(UTC+00:00)

Cosmos 1725 Rocket - Pass Details

Date: 16 February 2026
Orbit: 962 x 989 km, 82.9° (Epoch: 11 March)

Event Time Altitude Azimuth Distance (km) Brightness Sun altitude
Rises 18:52:43 0° 341° (NNW) 3,681 7.3 -15.7°
Reaches altitude 10° 18:55:53 10° 325° (NW) 2,734 6.8 -16.2°
Maximum altitude 19:00:14 20° 281° (W) 2,090 6.7 -16.9°
Drops below altitude 10° 19:04:35 10° 237° (WSW) 2,734 7.1 -17.5°
Sets 19:07:45 0° 221° (SW) 3,682 7.6 -18.0°
